Total_Precipitation_Accumulation
0.95 1.13 1.43 1.78 2.08 2.25 2.54 2.68 2.92 3.12 3.17 3.09 2.79 2.49 2.31 2.25 2.10 1.84 1.62 1.58 1.54 1.44 1.47 1.49 1.32 1.18 1.15 1.06 0.91 0.86 0.86 0.92 0.98 0.95 0.80 0.66 0.58 0.50 0.44 0.39 0.34 0.29 0.25
0.77 0.95 1.30 1.50 1.72 1.97 2.16 2.45 2.53 2.82 2.86 2.77 2.73 2.57 2.49 2.43 2.33 2.15 1.87 1.72 1.68 1.58 1.49 1.44 1.38 1.24 1.17 1.18 1.16 1.07 1.00 0.95 0.98 1.05 1.03 0.85 0.72 0.56 0.44 0.42 0.41 0.36 0.34
0.58 0.74 1.05 1.34 1.44 1.68 1.97 2.11 2.22 2.45 2.70 2.74 2.85 2.93 2.87 2.62 2.36 2.20 2.10 1.93 1.82 1.75 1.63 1.51 1.46 1.39 1.25 1.16 1.20 1.25 1.23 1.21 1.19 1.16 1.28 1.16 0.88 0.67 0.50 0.42 0.41 0.40 0.40
0.50 0.59 0.70 0.96 1.18 1.35 1.71 2.02 2.19 2.32 2.52 2.82 2.81 2.70 2.56 2.35 2.09 2.09 2.15 2.13 2.01 1.90 1.76 1.68 1.60 1.52 1.43 1.32 1.30 1.31 1.37 1.43 1.40 1.36 1.27 1.19 1.02 0.96 0.75 0.50 0.42 0.41 0.38
0.55 0.55 0.58 0.72 0.92 1.11 1.44 1.75 2.00 2.27 2.46 2.60 2.64 2.67 2.46 2.26 2.21 2.13 2.11 2.03 1.94 1.88 1.80 1.74 1.74 1.66 1.58 1.53 1.55 1.51 1.49 1.52 1.53 1.48 1.41 1.36 1.22 1.08 1.03 0.78 0.57 0.54 0.48
0.55 0.53 0.55 0.64 0.81 0.93 1.14 1.46 1.71 1.85 2.09 2.35 2.40 2.42 2.40 2.37 2.32 2.10 2.00 2.01 1.99 1.91 1.79 1.79 1.80 1.81 1.76 1.68 1.64 1.66 1.68 1.67 1.65 1.63 1.51 1.44 1.38 1.23 1.22 1.10 0.84 0.77 0.68
0.45 0.46 0.51 0.59 0.73 0.87 0.99 1.14 1.33 1.46 1.62 1.84 1.98 2.02 2.14 2.26 2.19 2.05 1.87 1.83 1.81 1.76 1.70 1.68 1.76 1.83 1.80 1.79 1.77 1.76 1.73 1.75 1.77 1.75 1.68 1.57 1.46 1.39 1.42 1.43 1.22 1.02 0.84
0.44 0.42 0.42 0.49 0.61 0.72 0.86 0.96 1.06 1.18 1.34 1.49 1.62 1.75 1.87 2.05 2.07 2.04 1.82 1.67 1.60 1.59 1.67 1.61 1.55 1.59 1.68 1.71 1.71 1.69 1.66 1.66 1.65 1.63 1.61 1.59 1.48 1.48 1.54 1.62 1.71 1.60 1.27
0.42 0.40 0.40 0.42 0.52 0.58 0.68 0.80 0.92 1.01 1.11 1.26 1.42 1.56 1.63 1.71 1.79 1.87 1.84 1.67 1.57 1.53 1.53 1.48 1.41 1.34 1.36 1.45 1.54 1.53 1.51 1.53 1.53 1.51 1.49 1.51 1.47 1.48 1.54 1.65 1.84 2.05 1.86
0.41 0.38 0.40 0.44 0.50 0.52 0.55 0.66 0.83 0.88 0.92 1.02 1.15 1.28 1.39 1.53 1.61 1.65 1.63 1.55 1.50 1.48 1.44 1.36 1.27 1.21 1.19 1.19 1.27 1.29 1.28 1.32 1.32 1.34 1.36 1.35 1.34 1.39 1.45 1.52 1.61 1.78 1.89
0.42 0.42 0.45 0.53 0.57 0.53 0.55 0.63 0.73 0.84 0.90 0.93 1.00 1.07 1.09 1.18 1.33 1.45 1.47 1.46 1.42 1.38 1.35 1.29 1.23 1.18 1.11 1.07 1.06 1.05 1.09 1.16 1.17 1.20 1.22 1.18 1.15 1.22 1.25 1.31 1.38 1.47 1.59
0.38 0.43 0.51 0.53 0.56 0.58 0.61 0.65 0.69 0.77 0.88 0.91 0.94 1.00 1.01 1.01 1.09 1.19 1.31 1.39 1.46 1.36 1.31 1.26 1.20 1.13 1.09 1.05 1.02 0.99 0.97 1.01 1.06 1.09 1.14 1.12 1.08 1.10 1.13 1.18 1.18 1.19 1.23
0.37 0.38 0.46 0.51 0.53 0.58 0.68 0.71 0.75 0.77 0.79 0.83 0.85 0.87 0.88 0.87 0.91 0.97 1.09 1.17 1.28 1.28 1.23 1.23 1.16 1.06 1.02 1.00 0.97 0.93 0.93 0.94 0.94 0.97 1.05 1.10 1.12 1.13 1.13 1.13 1.12 1.11 1.13
0.34 0.36 0.41 0.46 0.51 0.56 0.61 0.62 0.70 0.73 0.75 0.76 0.82 0.83 0.80 0.79 0.83 0.91 0.96 1.02 1.07 1.16 1.16 1.15 1.19 1.17 1.09 1.06 1.03 0.98 0.94 0.95 0.95 0.95 1.00 1.06 1.08 1.05 1.03 1.05 1.03 1.05 1.11
0.31 0.35 0.38 0.42 0.45 0.45 0.45 0.48 0.54 0.62 0.66 0.69 0.79 0.82 0.83 0.86 0.95 0.97 0.93 0.94 0.96 1.02 1.07 1.09 1.13 1.15 1.15 1.12 1.11 1.08 1.06 1.07 1.09 1.05 1.02 1.03 1.08 1.07 1.03 1.02 1.02 1.05 1.12
0.25 0.26 0.31 0.38 0.40 0.39 0.39 0.40 0.43 0.48 0.51 0.56 0.64 0.72 0.79 0.86 0.95 1.00 0.98 0.94 0.91 0.96 1.04 1.04 1.09 1.16 1.18 1.32 1.29 1.19 1.15 1.14 1.11 1.05 0.97 0.95 0.99 1.00 1.04 1.05 1.05 1.11 1.21
0.19 0.19 0.23 0.29 0.31 0.31 0.33 0.36 0.38 0.42 0.46 0.47 0.51 0.61 0.76 0.83 0.87 0.92 0.96 0.96 0.96 1.05 1.14 1.15 1.16 1.24 1.34 1.41 1.24 1.18 1.09 1.07 1.03 0.96 0.91 0.87 0.85 0.90 0.84 0.90 0.98 1.01 1.12
0.15 0.16 0.19 0.22 0.22 0.24 0.26 0.28 0.30 0.36 0.45 0.49 0.54 0.61 0.70 0.80 0.90 0.94 0.99 1.02 1.02 1.10 1.19 1.24 1.26 1.28 1.31 1.34 1.24 1.15 0.99 0.94 0.90 0.85 0.80 0.79 0.78 0.79 0.86 0.93 0.99 0.91 0.86
0.16 0.15 0.17 0.18 0.17 0.19 0.23 0.24 0.26 0.32 0.40 0.47 0.53 0.56 0.64 0.73 0.86 0.96 1.03 1.07 1.10 1.13 1.18 1.17 1.14 1.11 1.12 1.12 1.04 1.04 0.94 0.92 0.85 0.78 0.77 0.78 0.75 0.84 1.00 1.05 1.06 0.91 0.77
0.20 0.20 0.19 0.18 0.18 0.19 0.21 0.25 0.28 0.33 0.40 0.44 0.49 0.52 0.58 0.66 0.77 0.89 0.98 1.02 1.04 1.05 1.03 1.02 0.97 0.94 0.94 1.00 0.93 0.93 0.92 0.92 0.85 0.79 0.77 0.85 0.83 0.94 1.06 1.01 1.02 0.94 0.77
0.21 0.25 0.27 0.27 0.28 0.30 0.31 0.33 0.34 0.38 0.41 0.44 0.50 0.53 0.57 0.63 0.71 0.78 0.81 0.83 0.83 0.82 0.81 0.79 0.77 0.76 0.79 0.84 0.82 0.83 0.86 0.87 0.88 0.86 0.78 0.77 0.94 1.03 1.07 0.99 0.84 0.85 0.92
0.24 0.29 0.34 0.36 0.37 0.37 0.38 0.39 0.42 0.44 0.43 0.45 0.50 0.56 0.58 0.57 0.58 0.61 0.65 0.63 0.63 0.63 0.63 0.63 0.64 0.66 0.69 0.73 0.77 0.81 0.86 0.91 0.86 0.81 0.73 0.75 0.94 0.96 0.92 0.85 0.86 0.95 0.92
0.27 0.30 0.32 0.34 0.35 0.38 0.42 0.45 0.46 0.44 0.43 0.46 0.48 0.49 0.50 0.49 0.50 0.51 0.52 0.54 0.55 0.56 0.59 0.59 0.59 0.61 0.62 0.65 0.75 0.77 0.84 0.90 0.83 0.78 0.82 0.86 0.88 0.83 0.79 0.82 0.85 0.83 0.79
0.28 0.27 0.28 0.28 0.31 0.33 0.36 0.39 0.39 0.38 0.36 0.39 0.39 0.39 0.39 0.41 0.42 0.44 0.46 0.50 0.51 0.51 0.52 0.53 0.53 0.53 0.54 0.54 0.59 0.67 0.73 0.79 0.78 0.80 0.82 0.79 0.77 0.75 0.76 0.82 0.80 0.74 0.79
0.28 0.25 0.25 0.25 0.27 0.27 0.29 0.31 0.32 0.32 0.31 0.32 0.31 0.30 0.31 0.36 0.40 0.41 0.42 0.46 0.49 0.54 0.55 0.52 0.51 0.53 0.53 0.54 0.67 0.73 0.70 0.77 0.81 0.81 0.71 0.66 0.67 0.68 0.68 0.67 0.71 0.74 0.79
0.28 0.24 0.23 0.23 0.23 0.23 0.23 0.24 0.26 0.29 0.30 0.30 0.29 0.29 0.27 0.31 0.38 0.42 0.42 0.46 0.50 0.56 0.61 0.60 0.57 0.53 0.56 0.61 0.66 0.69 0.75 0.81 0.84 0.78 0.69 0.64 0.62 0.63 0.65 0.66 0.68 0.72 0.78